Location: Berg
(47.2344°N, 9.5296°E)
Time: 13:30:11
(UTC+00:00)

NOAA 15 - Visible Passes

Search period start: 04 October 2022 00:00
Search period end: 14 October 2022 00:00
Orbit: 797 x 812 km, 98.6° (Epoch: 04 October)

Date Brightness Start Highest point End Pass type
(mag) Time Alt. Az. Time Alt. Az. Time Alt. Az.
04 Oct 4.8 17:34:56 10° SE 17:39:57 48° ENE 17:45:01 10° N visible
04 Oct 6.7 19:15:37 10° SSW 19:19:57 26° W 19:24:20 10° NW visible
05 Oct 5.8 18:49:29 10° SSW 18:54:27 42° W 18:59:27 10° NNW visible
06 Oct 4.9 18:23:48 10° S 18:29:02 68° WSW 18:34:19 10° NNW visible
07 Oct 4.5 17:58:29 10° SSE 18:03:43 75° ENE 18:09:00 10° NNW visible
07 Oct 7.3 19:40:50 10° SW 19:44:04 16° W 19:47:21 10° NW visible
08 Oct 4.9 17:33:29 10° SE 17:38:29 47° ENE 17:43:32 10° N visible
08 Oct 6.6 19:14:04 10° SSW 19:18:28 27° W 19:22:55 10° NW visible
09 Oct 5.4 17:08:50 10° ESE 17:13:21 30° ENE 17:17:55 10° N visible
09 Oct 5.7 18:47:58 10° S 18:52:58 43° W 18:58:00 10° NNW visible
10 Oct 4.9 18:22:19 10° S 18:27:33 70° WSW 18:32:51 10° NNW visible
11 Oct 4.5 17:57:00 10° SSE 18:02:14 73° ENE 18:07:32 10° N visible
11 Oct 7.2 19:39:13 10° SW 19:42:35 17° W 19:45:57 10° NW visible
12 Oct 4.9 17:32:01 10° SE 17:37:00 46° ENE 17:42:03 10° N visible
12 Oct 6.5 19:12:31 10° SSW 19:16:59 27° W 19:21:28 10° NW visible
13 Oct 5.4 17:07:23 10° ESE 17:11:53 29° ENE 17:16:25 10° N visible
13 Oct 5.7 18:46:28 10° S 18:51:28 44° W 18:56:32 10° NNW visible
